Weather History for K20V - September, 2013

Change the Weather History Date:

Saturday, September 21, 2013

  Actual Average (KEGE) Record (KEGE)
Temperature  
Mean Temperature 52 °F -  
Max Temperature 73 °F 72 °F 87 °F (1966)
Min Temperature 32 °F 35 °F 16 °F (1983)
Degree Days  
Heating Degree Days 12    
Growing Degree Days 2 (Base 50)    
Moisture  
Dew Point 32 °F    
Average Humidity 58    
Maximum Humidity 93    
Minimum Humidity 19    
Precipitation  
Precipitation 0.00 in - - ()
Sea Level Pressure  
Sea Level Pressure 30.17 in    
Wind  
Wind Speed 3 mph (SW)    
Max Wind Speed 18 mph    
Max Gust Speed 28 mph    
Visibility 10 miles    
Events      
Averages and records for this station are not official NWS values.
T = Trace of Precipitation, MM = Missing Value Source: NWS Daily Summary

Daily Weather History Graph

Daily Weather History Graph

Search for Another Location

Airport or City:

Trip Planner

Search our weather history database for the weather conditions in past years. The results will help you decide how hot, cold, wet, or windy it might be!

Date:

Astronomy

Sep. 21, 2013 Rise Set
Actual Time 6:52 AM MDT 7:03 PM MDT
Civil Twilight 6:25 AM MDT 7:30 PM MDT
Nautical Twilight 5:53 AM MDT 8:02 PM MDT
Astronomical Twilight 5:21 AM MDT 8:34 PM MDT
Moon 8:16 PM MDT (9/21) 9:13 AM MDT (9/21)
Length of Visible Light 13h 05m
Length of Day
12h 11m
Waning Gibbous, 94% of the Moon is Illuminated
Sep 21
Waning Gibbous
Sep 26
Last Quarter
Oct 4
New
Oct 11
First Quarter
Oct 18
Full

Hourly Weather History & Observations

Time (MDT) Temp. Windchill Dew Point Humidity Pressure Visibility Wind Dir Wind Speed Gust Speed Precip Events Conditions
12:16 AM 41.0 °F - 33.8 °F 76% 30.26 in 10.0 mi Calm Calm - N/A   Clear
12:35 AM 41.0 °F - 33.8 °F 76% 30.26 in 10.0 mi Calm Calm - N/A   Clear
12:56 AM 37.4 °F - 32.0 °F 81% 30.26 in 10.0 mi Calm Calm - N/A   Clear
1:16 AM 37.4 °F - 33.8 °F 87% 30.26 in 10.0 mi Calm Calm - N/A   Clear
1:36 AM 37.4 °F - 33.8 °F 87% 30.26 in 10.0 mi Calm Calm - N/A   Clear
1:55 AM 37.4 °F - 33.8 °F 87% 30.26 in 10.0 mi Calm Calm - N/A   Clear
2:15 AM 35.6 °F - 32.0 °F 87% 30.26 in 10.0 mi Calm Calm - N/A   Clear
2:36 AM 35.6 °F - 32.0 °F 87% 30.26 in 10.0 mi Calm Calm - N/A   Clear
2:56 AM 35.6 °F - 32.0 °F 87% 30.26 in 10.0 mi Calm Calm - N/A   Clear
3:16 AM 35.6 °F 32.8 °F 32.0 °F 87% 30.26 in 10.0 mi ESE 3.5 mph - N/A   Clear
3:35 AM 35.6 °F - 32.0 °F 87% 30.26 in 10.0 mi Calm Calm - N/A   Clear
3:56 AM 33.8 °F - 32.0 °F 93% 30.26 in 10.0 mi Calm Calm - N/A   Clear
4:16 AM 33.8 °F - 32.0 °F 93% 30.26 in 10.0 mi Calm Calm - N/A   Clear
4:36 AM 33.8 °F - 32.0 °F 93% 30.26 in 10.0 mi Calm Calm - N/A   Clear
4:56 AM 33.8 °F - 32.0 °F 93% 30.27 in 10.0 mi Calm Calm - N/A   Clear
5:16 AM 33.8 °F - 32.0 °F 93% 30.27 in 10.0 mi Calm Calm - N/A   Clear
5:36 AM 33.8 °F - 32.0 °F 93% 30.27 in 10.0 mi Calm Calm - N/A   Clear
5:55 AM 33.8 °F - 32.0 °F 93% 30.27 in 10.0 mi Calm Calm - N/A   Clear
6:16 AM 33.8 °F - 32.0 °F 93% 30.27 in 10.0 mi Calm Calm - N/A   Clear
6:35 AM 32.0 °F - 30.2 °F 93% 30.27 in 10.0 mi Calm Calm - N/A   Clear
6:56 AM 32.0 °F - 30.2 °F 93% 30.27 in 10.0 mi Calm Calm - N/A   Clear
7:16 AM 32.0 °F - 30.2 °F 93% 30.28 in 10.0 mi Calm Calm - N/A   Clear
7:36 AM 33.8 °F - 32.0 °F 93% 30.28 in 10.0 mi Calm Calm - N/A   Clear
7:55 AM 35.6 °F - 32.0 °F 87% 30.28 in 10.0 mi Calm Calm - N/A   Clear
8:16 AM 35.6 °F - 32.0 °F 87% 30.27 in 10.0 mi Calm Calm - N/A   Clear
8:36 AM 39.2 °F - 33.8 °F 81% 30.27 in 10.0 mi Calm Calm - N/A   Clear
8:56 AM 41.0 °F 39.0 °F 32.0 °F 70% 30.26 in 10.0 mi SSE 3.5 mph - N/A   Clear
9:16 AM 44.6 °F - 33.8 °F 66% 30.26 in 10.0 mi Calm Calm - N/A   Clear
9:35 AM 46.4 °F - 33.8 °F 62% 30.25 in 10.0 mi Calm Calm - N/A   Clear
9:56 AM 50.0 °F - 32.0 °F 50% 30.25 in 10.0 mi Calm Calm - N/A   Clear
10:16 AM 51.8 °F - 33.8 °F 50% 30.24 in 10.0 mi West 3.5 mph - N/A   Clear
10:36 AM 51.8 °F - 32.0 °F 47% 30.23 in 10.0 mi Calm Calm - N/A   Clear
10:56 AM 53.6 °F - 32.0 °F 44% 30.22 in 10.0 mi Calm Calm - N/A   Clear
11:16 AM 55.4 °F - 32.0 °F 41% 30.21 in 10.0 mi Calm Calm - N/A   Clear
11:36 AM 59.0 °F - 33.8 °F 39% 30.20 in 10.0 mi Calm Calm - N/A   Clear
11:56 AM 60.8 °F - 33.8 °F 36% 30.19 in 10.0 mi Calm Calm - N/A   Clear
12:16 PM 64.4 °F - 33.8 °F 32% 30.18 in 10.0 mi Calm Calm - N/A   Clear
12:35 PM 69.8 °F - 37.4 °F 31% 30.17 in 10.0 mi WSW 8.1 mph - N/A   Clear
12:56 PM 73.4 °F - 32.0 °F 22% 30.16 in 10.0 mi SW 11.5 mph 20.7 mph N/A   Clear
1:16 PM 71.6 °F - 32.0 °F 23% 30.15 in 10.0 mi West 11.5 mph 20.7 mph N/A   Clear
1:36 PM 71.6 °F - 32.0 °F 23% 30.14 in 10.0 mi West 16.1 mph 23.0 mph N/A   Scattered Clouds
1:56 PM 71.6 °F - 32.0 °F 23% 30.13 in 10.0 mi West 16.1 mph 20.7 mph N/A   Scattered Clouds
2:16 PM 71.6 °F - 32.0 °F 23% 30.12 in 10.0 mi West 11.5 mph - N/A   Scattered Clouds
2:36 PM 73.4 °F - 32.0 °F 22% 30.11 in 10.0 mi SSW 18.4 mph 25.3 mph N/A   Scattered Clouds
2:56 PM 73.4 °F - 32.0 °F 22% 30.11 in 10.0 mi SW 16.1 mph 24.2 mph N/A   Scattered Clouds
3:15 PM 73.4 °F - 30.2 °F 20% 30.10 in 10.0 mi West 13.8 mph 24.2 mph N/A   Scattered Clouds
3:36 PM 73.4 °F - 32.0 °F 22% 30.09 in 10.0 mi SSW 17.3 mph 24.2 mph N/A   Clear
3:56 PM 73.4 °F - 28.4 °F 19% 30.08 in 10.0 mi SSW 18.4 mph 24.2 mph N/A   Clear
4:16 PM 73.4 °F - 30.2 °F 20% 30.07 in 10.0 mi SW 13.8 mph 21.9 mph N/A   Clear
4:36 PM 73.4 °F - 30.2 °F 20% 30.07 in 10.0 mi WSW 15.0 mph 27.6 mph N/A   Clear
4:56 PM 73.4 °F - 28.4 °F 19% 30.07 in 10.0 mi WSW 16.1 mph 21.9 mph N/A   Clear
5:16 PM 71.6 °F - 28.4 °F 20% 30.06 in 10.0 mi WSW 13.8 mph 23.0 mph N/A   Clear
5:36 PM 71.6 °F - 28.4 °F 20% 30.06 in 10.0 mi SW 17.3 mph 21.9 mph N/A   Clear
5:56 PM 71.6 °F - 28.4 °F 20% 30.06 in 10.0 mi WSW 11.5 mph 18.4 mph N/A   Clear
6:16 PM 69.8 °F - 28.4 °F 21% 30.06 in 10.0 mi SW 8.1 mph - N/A   Clear
6:35 PM 69.8 °F - 32.0 °F 25% 30.06 in 10.0 mi SW 4.6 mph - N/A   Clear
6:55 PM 62.6 °F - 30.2 °F 30% 30.05 in 10.0 mi SW 8.1 mph - N/A   Clear
7:16 PM 62.6 °F - 28.4 °F 27% 30.04 in 10.0 mi SW 5.8 mph - N/A   Clear
7:35 PM 60.8 °F - 30.2 °F 31% 30.05 in 10.0 mi Calm Calm - N/A   Clear
7:56 PM 55.4 °F - 33.8 °F 44% 30.05 in 10.0 mi Calm Calm - N/A   Clear
8:16 PM 53.6 °F - 33.8 °F 47% 30.05 in 10.0 mi Calm Calm - N/A   Clear
8:35 PM 51.8 °F - 37.4 °F 58% 30.05 in 10.0 mi South 3.5 mph - N/A   Clear
8:56 PM 50.0 °F - 35.6 °F 58% 30.05 in 10.0 mi Calm Calm - N/A   Clear
9:16 PM 50.0 °F - 35.6 °F 58% 30.05 in 10.0 mi Calm Calm - N/A   Clear
9:36 PM 50.0 °F - 35.6 °F 58% 30.05 in 10.0 mi Calm Calm - N/A   Clear
9:56 PM 50.0 °F - 35.6 °F 58% 30.05 in 10.0 mi SE 3.5 mph - N/A   Clear
10:16 PM 46.4 °F 45.2 °F 37.4 °F 71% 30.05 in 10.0 mi SE 3.5 mph - N/A   Clear
10:35 PM 46.4 °F - 37.4 °F 71% 30.05 in 10.0 mi Calm Calm - N/A   Clear
10:56 PM 46.4 °F - 35.6 °F 66% 30.05 in 10.0 mi Calm Calm - N/A   Clear
11:16 PM 44.6 °F - 35.6 °F 71% 30.04 in 10.0 mi Calm Calm - N/A   Clear
11:36 PM 44.6 °F - 35.6 °F 71% 30.04 in 10.0 mi Calm Calm - N/A   Clear
11:56 PM 42.8 °F - 35.6 °F 76% 30.04 in 10.0 mi Calm Calm - N/A   Clear